contact:dominique.lefevre@mio.osupytheas.fr, maurice.libes@osupytheas.fr, didier.mallarino@osupytheas.fr
Project:EMSO http://www.emso-fr.org/EMSO-France
Depth: 2436.0 m
Title:EMSO Ligure Ouest : Data MII capteur MICROCAT
DateTime_Computer,Latitude,Longitude,Temperature,Conductivity,Pressure,DateTime_Instrument
DateTime_Computer,Latitude,Longitude,degC,S m-1,dbar,DateTime_Instrument
2023-09-23T00:00:34Z,42.805,6.029,13.3046,4.60150,2470.787,2023-9-23T02:02:57Z
2023-09-23T00:03:37Z,42.805,6.029,13.3047,4.60149,2470.763,2023-9-23T02:06:00Z
2023-09-23T00:06:40Z,42.805,6.029,13.3052,4.60147,2470.787,2023-9-23T02:09:03Z
2023-09-23T00:09:43Z,42.805,6.029,13.3039,4.60161,2470.777,2023-9-23T02:12:06Z
2023-09-23T00:12:47Z,42.805,6.029,13.3052,4.60173,2470.763,2023-9-23T02:15:09Z
2023-09-23T00:15:50Z,42.805,6.029,13.3054,4.60155,2470.8,2023-9-23T02:18:12Z
2023-09-23T00:18:53Z,42.805,6.029,13.3041,4.60161,2470.787,2023-9-23T02:21:15Z
2023-09-23T00:21:56Z,42.805,6.029,13.3056,4.60170,2470.824,2023-9-23T02:24:18Z
2023-09-23T00:24:59Z,42.805,6.029,13.3042,4.60142,2470.777,2023-9-23T02:27:21Z
2023-09-23T00:28:02Z,42.805,6.029,13.3049,4.60143,2470.787,2023-9-23T02:30:25Z
2023-09-23T00:31:05Z,42.805,6.029,13.3049,4.60135,2470.763,2023-9-23T02:33:28Z
2023-09-23T00:34:08Z,42.805,6.029,13.3042,4.60162,2470.777,2023-9-23T02:36:31Z
2023-09-23T00:37:11Z,42.805,6.029,13.3034,4.60149,2470.787,2023-9-23T02:39:34Z
2023-09-23T00:40:14Z,42.805,6.029,13.3034,4.60147,2470.777,2023-9-23T02:42:37Z
2023-09-23T00:43:17Z,42.805,6.029,13.3039,4.60150,2470.8,2023-9-23T02:45:40Z
2023-09-23T00:46:20Z,42.805,6.029,13.3044,4.60150,2470.787,2023-9-23T02:48:43Z
2023-09-23T00:49:24Z,42.805,6.029,13.3043,4.60137,2470.8,2023-9-23T02:51:46Z
2023-09-23T00:52:27Z,42.805,6.029,13.3044,4.60167,2470.787,2023-9-23T02:54:49Z
2023-09-23T00:55:30Z,42.805,6.029,13.3044,4.60167,2470.763,2023-9-23T02:57:52Z
2023-09-23T00:58:33Z,42.805,6.029,13.3045,4.60150,2470.777,2023-9-23T03:00:55Z
2023-09-23T01:01:36Z,42.805,6.029,13.3041,4.60163,2470.8,2023-9-23T03:03:59Z
2023-09-23T01:04:39Z,42.805,6.029,13.3046,4.60157,2470.787,2023-9-23T03:07:02Z
2023-09-23T01:07:42Z,42.805,6.029,13.3048,4.60167,2470.74,2023-9-23T03:10:05Z
2023-09-23T01:10:45Z,42.805,6.029,13.3054,4.60150,2470.796,2023-9-23T03:13:08Z
2023-09-23T01:13:48Z,42.805,6.029,13.3059,4.60170,2470.763,2023-9-23T03:16:11Z
2023-09-23T01:16:51Z,42.805,6.029,13.3048,4.60164,2470.777,2023-9-23T03:19:14Z
2023-09-23T01:19:54Z,42.805,6.029,13.3049,4.60145,2470.763,2023-9-23T03:22:17Z
2023-09-23T01:22:57Z,42.805,6.029,13.3043,4.60138,2470.75,2023-9-23T03:25:20Z
2023-09-23T01:26:01Z,42.805,6.029,13.3048,4.60155,2470.763,2023-9-23T03:28:23Z
2023-09-23T01:29:04Z,42.805,6.029,13.3043,4.60151,2470.787,2023-9-23T03:31:26Z
2023-09-23T01:32:07Z,42.805,6.029,13.3039,4.60146,2470.763,2023-9-23T03:34:29Z
2023-09-23T01:35:10Z,42.805,6.029,13.3043,4.60162,2470.763,2023-9-23T03:37:32Z
2023-09-23T01:38:13Z,42.805,6.029,13.3042,4.60135,2470.754,2023-9-23T03:40:36Z
2023-09-23T01:41:16Z,42.805,6.029,13.3054,4.60157,2470.74,2023-9-23T03:43:39Z
2023-09-23T01:44:19Z,42.805,6.029,13.3043,4.60157,2470.74,2023-9-23T03:46:42Z
2023-09-23T01:47:22Z,42.805,6.029,13.3052,4.60147,2470.74,2023-9-23T03:49:45Z
2023-09-23T01:50:25Z,42.805,6.029,13.3043,4.60170,2470.74,2023-9-23T03:52:48Z
2023-09-23T01:53:28Z,42.805,6.029,13.3035,4.60144,2470.74,2023-9-23T03:55:51Z
2023-09-23T01:56:31Z,42.805,6.029,13.3039,4.60161,2470.777,2023-9-23T03:58:54Z
2023-09-23T01:59:34Z,42.805,6.029,13.3048,4.60167,2470.777,2023-9-23T04:01:57Z
2023-09-23T02:02:38Z,42.805,6.029,13.3052,4.60174,2470.777,2023-9-23T04:05:00Z
2023-09-23T02:05:41Z,42.805,6.029,13.3039,4.60167,2470.74,2023-9-23T04:08:03Z
2023-09-23T02:08:44Z,42.805,6.029,13.3051,4.60125,2470.777,2023-9-23T04:11:06Z
2023-09-23T02:11:47Z,42.805,6.029,13.3041,4.60167,2470.74,2023-9-23T04:14:09Z
2023-09-23T02:14:50Z,42.805,6.029,13.3041,4.60147,2470.74,2023-9-23T04:17:13Z
2023-09-23T02:17:53Z,42.805,6.029,13.3047,4.60149,2470.763,2023-9-23T04:20:16Z
2023-09-23T02:20:56Z,42.805,6.029,13.3061,4.60135,2470.777,2023-9-23T04:23:19Z
2023-09-23T02:23:59Z,42.805,6.029,13.3048,4.60164,2470.717,2023-9-23T04:26:22Z
2023-09-23T02:27:02Z,42.805,6.029,13.3039,4.60163,2470.763,2023-9-23T04:29:25Z
2023-09-23T02:30:05Z,42.805,6.029,13.3042,4.60149,2470.75,2023-9-23T04:32:28Z
2023-09-23T02:33:08Z,42.805,6.029,13.3048,4.60149,2470.74,2023-9-23T04:35:31Z
2023-09-23T02:36:11Z,42.805,6.029,13.3036,4.60150,2470.754,2023-9-23T04:38:34Z
2023-09-23T02:39:15Z,42.805,6.029,13.3036,4.60152,2470.754,2023-9-23T04:41:37Z
2023-09-23T02:42:18Z,42.805,6.029,13.3042,4.60161,2470.74,2023-9-23T04:44:40Z
2023-09-23T02:45:21Z,42.805,6.029,13.3043,4.60168,2470.74,2023-9-23T04:47:43Z
2023-09-23T02:48:24Z,42.805,6.029,13.3048,4.60160,2470.717,2023-9-23T04:50:46Z
2023-09-23T02:51:27Z,42.805,6.029,13.3051,4.60159,2470.763,2023-9-23T04:53:50Z
2023-09-23T02:54:30Z,42.805,6.029,13.3058,4.60161,2470.73,2023-9-23T04:56:53Z
2023-09-23T02:57:33Z,42.805,6.029,13.3039,4.60162,2470.777,2023-9-23T04:59:56Z
2023-09-23T03:00:36Z,42.805,6.029,13.3054,4.60152,2470.74,2023-9-23T05:02:59Z
2023-09-23T03:03:39Z,42.805,6.029,13.3040,4.60150,2470.74,2023-9-23T05:06:02Z
2023-09-23T03:06:42Z,42.805,6.029,13.3040,4.60148,2470.754,2023-9-23T05:09:05Z
2023-09-23T03:09:45Z,42.805,6.029,13.3035,4.60165,2470.73,2023-9-23T05:12:08Z
2023-09-23T03:12:48Z,42.805,6.029,13.3051,4.60170,2470.717,2023-9-23T05:15:11Z
2023-09-23T03:15:51Z,42.805,6.029,13.3042,4.60155,2470.693,2023-9-23T05:18:14Z
2023-09-23T03:18:55Z,42.805,6.029,13.3042,4.60145,2470.717,2023-9-23T05:21:17Z
2023-09-23T03:21:58Z,42.805,6.029,13.3040,4.60147,2470.74,2023-9-23T05:24:20Z
2023-09-23T03:25:01Z,42.805,6.029,13.3040,4.60165,2470.763,2023-9-23T05:27:23Z
2023-09-23T03:28:04Z,42.805,6.029,13.3054,4.60147,2470.74,2023-9-23T05:30:26Z
2023-09-23T03:31:07Z,42.805,6.029,13.3041,4.60140,2470.754,2023-9-23T05:33:30Z
2023-09-23T03:34:10Z,42.805,6.029,13.3054,4.60172,2470.777,2023-9-23T05:36:33Z
2023-09-23T03:37:13Z,42.805,6.029,13.3044,4.60166,2470.754,2023-9-23T05:39:36Z
2023-09-23T03:40:16Z,42.805,6.029,13.3056,4.60176,2470.763,2023-9-23T05:42:39Z
2023-09-23T03:43:19Z,42.805,6.029,13.3045,4.60152,2470.754,2023-9-23T05:45:42Z
2023-09-23T03:46:22Z,42.805,6.029,13.3045,4.60173,2470.73,2023-9-23T05:48:45Z
2023-09-23T03:49:25Z,42.805,6.029,13.3043,4.60135,2470.74,2023-9-23T05:51:48Z
2023-09-23T03:52:28Z,42.805,6.029,13.3045,4.60150,2470.74,2023-9-23T05:54:51Z
2023-09-23T03:55:32Z,42.805,6.029,13.3037,4.60160,2470.73,2023-9-23T05:57:54Z
2023-09-23T03:58:35Z,42.805,6.029,13.3046,4.60161,2470.717,2023-9-23T06:00:57Z
2023-09-23T04:01:38Z,42.805,6.029,13.3044,4.60167,2470.717,2023-9-23T06:04:00Z
2023-09-23T04:04:41Z,42.805,6.029,13.3051,4.60164,2470.74,2023-9-23T06:07:03Z
2023-09-23T04:07:44Z,42.805,6.029,13.3067,4.60170,2470.717,2023-9-23T06:10:07Z
2023-09-23T04:10:47Z,42.805,6.029,13.3045,4.60160,2470.693,2023-9-23T06:13:10Z
2023-09-23T04:13:50Z,42.805,6.029,13.3057,4.60151,2470.74,2023-9-23T06:16:13Z
2023-09-23T04:16:53Z,42.805,6.029,13.3054,4.60137,2470.763,2023-9-23T06:19:16Z
2023-09-23T04:19:56Z,42.805,6.029,13.3045,4.60155,2470.717,2023-9-23T06:22:19Z
2023-09-23T04:22:59Z,42.805,6.029,13.3051,4.60160,2470.717,2023-9-23T06:25:22Z
2023-09-23T04:26:02Z,42.805,6.029,13.3044,4.60137,2470.754,2023-9-23T06:28:25Z
2023-09-23T04:29:05Z,42.805,6.029,13.3049,4.60142,2470.754,2023-9-23T06:31:28Z
2023-09-23T04:32:08Z,42.805,6.029,13.3046,4.60165,2470.707,2023-9-23T06:34:30Z
2023-09-23T04:35:11Z,42.805,6.029,13.3056,4.60147,2470.707,2023-9-23T06:37:33Z
2023-09-23T04:38:14Z,42.805,6.029,13.3051,4.60151,2470.693,2023-9-23T06:40:36Z
2023-09-23T04:41:17Z,42.805,6.029,13.3053,4.60157,2470.74,2023-9-23T06:43:40Z
2023-09-23T04:44:20Z,42.805,6.029,13.3041,4.60149,2470.74,2023-9-23T06:46:43Z
2023-09-23T04:47:23Z,42.805,6.029,13.3050,4.60163,2470.73,2023-9-23T06:49:46Z
2023-09-23T04:50:26Z,42.805,6.029,13.3043,4.60155,2470.717,2023-9-23T06:52:49Z
2023-09-23T04:53:29Z,42.805,6.029,13.3042,4.60125,2470.763,2023-9-23T06:55:52Z
2023-09-23T04:56:32Z,42.805,6.029,13.3043,4.60154,2470.693,2023-9-23T06:58:55Z
2023-09-23T04:59:35Z,42.805,6.029,13.3054,4.60164,2470.707,2023-9-23T07:01:58Z
2023-09-23T05:02:38Z,42.805,6.029,13.3039,4.60152,2470.693,2023-9-23T07:05:01Z
2023-09-23T05:05:42Z,42.805,6.029,13.3050,4.60148,2470.74,2023-9-23T07:08:04Z
2023-09-23T05:08:45Z,42.805,6.029,13.3043,4.60147,2470.754,2023-9-23T07:11:07Z
2023-09-23T05:11:48Z,42.805,6.029,13.3041,4.60134,2470.74,2023-9-23T07:14:10Z
2023-09-23T05:14:51Z,42.805,6.029,13.3041,4.60147,2470.73,2023-9-23T07:17:13Z
2023-09-23T05:17:54Z,42.805,6.029,13.3039,4.60142,2470.693,2023-9-23T07:20:17Z
2023-09-23T05:20:57Z,42.805,6.029,13.3039,4.60157,2470.717,2023-9-23T07:23:20Z
2023-09-23T05:24:00Z,42.805,6.029,13.3043,4.60167,2470.73,2023-9-23T07:26:23Z
2023-09-23T05:27:03Z,42.805,6.029,13.3043,4.60160,2470.74,2023-9-23T07:29:26Z
2023-09-23T05:30:06Z,42.805,6.029,13.3043,4.60165,2470.73,2023-9-23T07:32:29Z
2023-09-23T05:33:09Z,42.805,6.029,13.3051,4.60157,2470.717,2023-9-23T07:35:32Z
2023-09-23T05:36:12Z,42.805,6.029,13.3045,4.60147,2470.67,2023-9-23T07:38:35Z
2023-09-23T05:39:15Z,42.805,6.029,13.3048,4.60165,2470.754,2023-9-23T07:41:38Z
2023-09-23T05:42:19Z,42.805,6.029,13.3051,4.60158,2470.717,2023-9-23T07:44:41Z
2023-09-23T05:45:22Z,42.805,6.029,13.3046,4.60148,2470.73,2023-9-23T07:47:44Z
2023-09-23T05:48:25Z,42.805,6.029,13.3043,4.60167,2470.693,2023-9-23T07:50:47Z
2023-09-23T05:51:28Z,42.805,6.029,13.3043,4.60162,2470.73,2023-9-23T07:53:50Z
2023-09-23T05:54:31Z,42.805,6.029,13.3046,4.60163,2470.707,2023-9-23T07:56:54Z
2023-09-23T05:57:34Z,42.805,6.029,13.3052,4.60157,2470.693,2023-9-23T07:59:57Z
2023-09-23T06:00:37Z,42.805,6.029,13.3043,4.60149,2470.67,2023-9-23T08:03:00Z
2023-09-23T06:03:40Z,42.805,6.029,13.3066,4.60127,2470.73,2023-9-23T08:06:03Z
2023-09-23T06:06:43Z,42.805,6.029,13.3052,4.60169,2470.693,2023-9-23T08:09:06Z
2023-09-23T06:09:46Z,42.805,6.029,13.3050,4.60146,2470.693,2023-9-23T08:12:09Z
2023-09-23T06:12:49Z,42.805,6.029,13.3043,4.60152,2470.67,2023-9-23T08:15:12Z
2023-09-23T06:15:52Z,42.805,6.029,13.3052,4.60162,2470.693,2023-9-23T08:18:15Z
2023-09-23T06:18:56Z,42.805,6.029,13.3051,4.60162,2470.707,2023-9-23T08:21:18Z
2023-09-23T06:21:59Z,42.805,6.029,13.3042,4.60147,2470.646,2023-9-23T08:24:21Z
2023-09-23T06:25:02Z,42.805,6.029,13.3043,4.60142,2470.679,2023-9-23T08:27:24Z
2023-09-23T06:28:05Z,42.805,6.029,13.3070,4.60167,2470.693,2023-9-23T08:30:27Z
2023-09-23T06:31:07Z,42.805,6.029,13.3046,4.60146,2470.707,2023-9-23T08:33:29Z
2023-09-23T06:34:10Z,42.805,6.029,13.3038,4.60170,2470.693,2023-9-23T08:36:33Z
2023-09-23T06:37:13Z,42.805,6.029,13.3041,4.60164,2470.717,2023-9-23T08:39:36Z
2023-09-23T06:40:16Z,42.805,6.029,13.3045,4.60169,2470.684,2023-9-23T08:42:39Z
2023-09-23T06:43:19Z,42.805,6.029,13.3038,4.60161,2470.74,2023-9-23T08:45:42Z
2023-09-23T06:46:22Z,42.805,6.029,13.3042,4.60122,2470.707,2023-9-23T08:48:45Z
2023-09-23T06:49:25Z,42.805,6.029,13.3051,4.60172,2470.693,2023-9-23T08:51:48Z
2023-09-23T06:52:28Z,42.805,6.029,13.3047,4.60184,2470.693,2023-9-23T08:54:51Z
2023-09-23T06:55:31Z,42.805,6.029,13.3040,4.60165,2470.717,2023-9-23T08:57:54Z
2023-09-23T06:58:35Z,42.805,6.029,13.3039,4.60168,2470.717,2023-9-23T09:00:57Z
2023-09-23T07:01:38Z,42.805,6.029,13.3048,4.60182,2470.684,2023-9-23T09:04:00Z
2023-09-23T07:04:41Z,42.805,6.029,13.3044,4.60175,2470.67,2023-9-23T09:07:03Z
2023-09-23T07:07:44Z,42.805,6.029,13.3066,4.60174,2470.693,2023-9-23T09:10:06Z
2023-09-23T07:10:47Z,42.805,6.029,13.3040,4.60156,2470.693,2023-9-23T09:13:10Z
2023-09-23T07:13:50Z,42.805,6.029,13.3053,4.60166,2470.707,2023-9-23T09:16:13Z
2023-09-23T07:16:53Z,42.805,6.029,13.3049,4.60166,2470.693,2023-9-23T09:19:16Z
2023-09-23T07:19:56Z,42.805,6.029,13.3048,4.60171,2470.707,2023-9-23T09:22:19Z
2023-09-23T07:22:59Z,42.805,6.029,13.3048,4.60145,2470.717,2023-9-23T09:25:22Z
2023-09-23T07:26:02Z,42.805,6.029,13.3051,4.60178,2470.693,2023-9-23T09:28:25Z
2023-09-23T07:29:05Z,42.805,6.029,13.3045,4.60163,2470.73,2023-9-23T09:31:28Z
2023-09-23T07:32:08Z,42.805,6.029,13.3048,4.60143,2470.717,2023-9-23T09:34:31Z
2023-09-23T07:35:12Z,42.805,6.029,13.3043,4.60175,2470.717,2023-9-23T09:37:34Z
2023-09-23T07:38:15Z,42.805,6.029,13.3039,4.60158,2470.707,2023-9-23T09:40:37Z
2023-09-23T07:41:18Z,42.805,6.029,13.3043,4.60161,2470.717,2023-9-23T09:43:40Z
2023-09-23T07:44:21Z,42.805,6.029,13.3058,4.60167,2470.717,2023-9-23T09:46:43Z
2023-09-23T07:47:24Z,42.805,6.029,13.3064,4.60170,2470.693,2023-9-23T09:49:47Z
2023-09-23T07:50:27Z,42.805,6.029,13.3038,4.60150,2470.73,2023-9-23T09:52:50Z
2023-09-23T07:53:30Z,42.805,6.029,13.3046,4.60175,2470.717,2023-9-23T09:55:53Z
2023-09-23T07:56:33Z,42.805,6.029,13.3043,4.60171,2470.707,2023-9-23T09:58:56Z
2023-09-23T07:59:36Z,42.805,6.029,13.3047,4.60166,2470.693,2023-9-23T10:01:59Z
2023-09-23T08:02:39Z,42.805,6.029,13.3047,4.60190,2470.73,2023-9-23T10:05:02Z
2023-09-23T08:05:42Z,42.805,6.029,13.3074,4.60117,2470.693,2023-9-23T10:08:05Z
2023-09-23T08:08:45Z,42.805,6.029,13.3051,4.60169,2470.74,2023-9-23T10:11:08Z
2023-09-23T08:11:49Z,42.805,6.029,13.3065,4.60190,2470.73,2023-9-23T10:14:11Z
2023-09-23T08:14:52Z,42.805,6.029,13.3056,4.60167,2470.693,2023-9-23T10:17:14Z
2023-09-23T08:17:55Z,42.805,6.029,13.3049,4.60186,2470.74,2023-9-23T10:20:17Z
2023-09-23T08:20:58Z,42.805,6.029,13.3069,4.60182,2470.693,2023-9-23T10:23:20Z
2023-09-23T08:24:01Z,42.805,6.029,13.3053,4.60197,2470.73,2023-9-23T10:26:24Z
2023-09-23T08:27:04Z,42.805,6.029,13.3054,4.60167,2470.754,2023-9-23T10:29:27Z
2023-09-23T08:30:10Z,42.805,6.029,13.3051,4.60148,2470.717,2023-9-23T10:32:32Z
2023-09-23T08:33:13Z,42.805,6.029,13.3052,4.60167,2470.717,2023-9-23T10:35:35Z
2023-09-23T08:36:16Z,42.805,6.029,13.3055,4.60173,2470.707,2023-9-23T10:38:39Z
2023-09-23T08:39:19Z,42.805,6.029,13.3059,4.60176,2470.717,2023-9-23T10:41:42Z
2023-09-23T08:42:22Z,42.805,6.029,13.3054,4.60154,2470.717,2023-9-23T10:44:45Z
2023-09-23T08:45:25Z,42.805,6.029,13.3076,4.60170,2470.717,2023-9-23T10:47:48Z
2023-09-23T08:48:28Z,42.805,6.029,13.3057,4.60187,2470.73,2023-9-23T10:50:51Z
2023-09-23T08:51:31Z,42.805,6.029,13.3048,4.60181,2470.74,2023-9-23T10:53:54Z
2023-09-23T08:54:34Z,42.805,6.029,13.3045,4.60178,2470.74,2023-9-23T10:56:57Z
2023-09-23T08:57:37Z,42.805,6.029,13.3041,4.60187,2470.763,2023-9-23T11:00:00Z
2023-09-23T09:00:41Z,42.805,6.029,13.3067,4.60149,2470.73,2023-9-23T11:03:03Z
2023-09-23T09:03:44Z,42.805,6.029,13.3065,4.60132,2470.74,2023-9-23T11:06:06Z
2023-09-23T09:06:47Z,42.805,6.029,13.3057,4.60151,2470.754,2023-9-23T11:09:09Z
2023-09-23T09:09:50Z,42.805,6.029,13.3052,4.60191,2470.73,2023-9-23T11:12:12Z
2023-09-23T09:12:53Z,42.805,6.029,13.3062,4.60175,2470.717,2023-9-23T11:15:16Z
2023-09-23T09:15:56Z,42.805,6.029,13.3065,4.60151,2470.717,2023-9-23T11:18:19Z
2023-09-23T09:18:59Z,42.805,6.029,13.3059,4.60187,2470.717,2023-9-23T11:21:22Z
2023-09-23T09:22:02Z,42.805,6.029,13.3069,4.60154,2470.74,2023-9-23T11:24:25Z
2023-09-23T09:25:05Z,42.805,6.029,13.3067,4.60144,2470.717,2023-9-23T11:27:28Z
2023-09-23T09:28:08Z,42.805,6.029,13.3057,4.60192,2470.777,2023-9-23T11:30:31Z
2023-09-23T09:31:11Z,42.805,6.029,13.3063,4.60147,2470.777,2023-9-23T11:33:34Z
2023-09-23T09:34:14Z,42.805,6.029,13.3051,4.60142,2470.73,2023-9-23T11:36:37Z
2023-09-23T09:37:18Z,42.805,6.029,13.3045,4.60173,2470.754,2023-9-23T11:39:40Z
2023-09-23T09:40:21Z,42.805,6.029,13.3048,4.60149,2470.717,2023-9-23T11:42:43Z
2023-09-23T09:43:24Z,42.805,6.029,13.3049,4.60168,2470.74,2023-9-23T11:45:46Z
2023-09-23T09:46:27Z,42.805,6.029,13.3056,4.60155,2470.763,2023-9-23T11:48:49Z
2023-09-23T09:49:30Z,42.805,6.029,13.3067,4.60150,2470.74,2023-9-23T11:51:53Z
2023-09-23T09:52:33Z,42.805,6.029,13.3061,4.60144,2470.763,2023-9-23T11:54:56Z
2023-09-23T09:55:36Z,42.805,6.029,13.3074,4.60166,2470.754,2023-9-23T11:57:59Z
2023-09-23T09:58:39Z,42.805,6.029,13.3067,4.60196,2470.754,2023-9-23T12:01:02Z
2023-09-23T10:01:42Z,42.805,6.029,13.3052,4.60169,2470.74,2023-9-23T12:04:05Z
2023-09-23T10:04:45Z,42.805,6.029,13.3061,4.60114,2470.74,2023-9-23T12:07:08Z
2023-09-23T10:07:48Z,42.805,6.029,13.3061,4.60118,2470.763,2023-9-23T12:10:11Z
2023-09-23T10:10:51Z,42.805,6.029,13.3062,4.60155,2470.763,2023-9-23T12:13:14Z
2023-09-23T10:13:55Z,42.805,6.029,13.3060,4.60173,2470.763,2023-9-23T12:16:17Z
2023-09-23T10:16:58Z,42.805,6.029,13.3063,4.60157,2470.74,2023-9-23T12:19:20Z
2023-09-23T10:20:01Z,42.805,6.029,13.3053,4.60104,2470.777,2023-9-23T12:22:23Z
2023-09-23T10:23:04Z,42.805,6.029,13.3054,4.60125,2470.74,2023-9-23T12:25:26Z
2023-09-23T10:26:07Z,42.805,6.029,13.3061,4.60135,2470.763,2023-9-23T12:28:30Z
2023-09-23T10:29:10Z,42.805,6.029,13.3046,4.60129,2470.763,2023-9-23T12:31:33Z
2023-09-23T10:32:13Z,42.805,6.029,13.3049,4.60104,2470.777,2023-9-23T12:34:36Z
2023-09-23T10:35:16Z,42.805,6.029,13.3060,4.60127,2470.763,2023-9-23T12:37:39Z
2023-09-23T10:38:19Z,42.805,6.029,13.3061,4.60158,2470.74,2023-9-23T12:40:42Z
2023-09-23T10:41:22Z,42.805,6.029,13.3058,4.60178,2470.777,2023-9-23T12:43:45Z
2023-09-23T10:44:25Z,42.805,6.029,13.3058,4.60127,2470.81,2023-9-23T12:46:48Z
2023-09-23T10:47:29Z,42.805,6.029,13.3045,4.60148,2470.8,2023-9-23T12:49:51Z
2023-09-23T10:50:32Z,42.805,6.029,13.3049,4.60144,2470.763,2023-9-23T12:52:54Z
2023-09-23T10:53:35Z,42.805,6.029,13.3069,4.60119,2470.787,2023-9-23T12:55:57Z
2023-09-23T10:56:38Z,42.805,6.029,13.3069,4.60165,2470.8,2023-9-23T12:59:00Z
2023-09-23T10:59:41Z,42.805,6.029,13.3059,4.60146,2470.787,2023-9-23T13:02:03Z
2023-09-23T11:02:44Z,42.805,6.029,13.3054,4.60144,2470.754,2023-9-23T13:05:07Z
2023-09-23T11:05:47Z,42.805,6.029,13.3074,4.60153,2470.763,2023-9-23T13:08:10Z
2023-09-23T11:08:50Z,42.805,6.029,13.3060,4.60162,2470.763,2023-9-23T13:11:13Z
2023-09-23T11:11:53Z,42.805,6.029,13.3075,4.60137,2470.824,2023-9-23T13:14:16Z
2023-09-23T11:14:56Z,42.805,6.029,13.3056,4.60155,2470.763,2023-9-23T13:17:19Z
2023-09-23T11:17:59Z,42.805,6.029,13.3063,4.60160,2470.763,2023-9-23T13:20:22Z
2023-09-23T11:21:02Z,42.805,6.029,13.3061,4.60135,2470.787,2023-9-23T13:23:25Z
2023-09-23T11:24:06Z,42.805,6.029,13.3058,4.60160,2470.777,2023-9-23T13:26:28Z
2023-09-23T11:27:09Z,42.805,6.029,13.3056,4.60173,2470.787,2023-9-23T13:29:31Z
2023-09-23T11:30:12Z,42.805,6.029,13.3071,4.60132,2470.8,2023-9-23T13:32:34Z
2023-09-23T11:33:15Z,42.805,6.029,13.3056,4.60147,2470.787,2023-9-23T13:35:37Z
2023-09-23T11:36:18Z,42.805,6.029,13.3058,4.60157,2470.81,2023-9-23T13:38:41Z
2023-09-23T11:39:21Z,42.805,6.029,13.3052,4.60184,2470.777,2023-9-23T13:41:44Z
2023-09-23T11:42:24Z,42.805,6.029,13.3054,4.60126,2470.81,2023-9-23T13:44:47Z
2023-09-23T11:45:27Z,42.805,6.029,13.3044,4.60156,2470.824,2023-9-23T13:47:50Z
2023-09-23T11:48:30Z,42.805,6.029,13.3041,4.60133,2470.787,2023-9-23T13:50:53Z
2023-09-23T11:51:33Z,42.805,6.029,13.3046,4.60151,2470.81,2023-9-23T13:53:56Z
2023-09-23T11:54:36Z,42.805,6.029,13.3039,4.60131,2470.787,2023-9-23T13:56:59Z
2023-09-23T11:57:39Z,42.805,6.029,13.3049,4.60156,2470.824,2023-9-23T14:00:02Z
2023-09-23T12:00:43Z,42.805,6.029,13.3041,4.60143,2470.8,2023-9-23T14:03:05Z
2023-09-23T12:03:46Z,42.805,6.029,13.3041,4.60161,2470.8,2023-9-23T14:06:08Z
2023-09-23T12:06:49Z,42.805,6.029,13.3049,4.60173,2470.787,2023-9-23T14:09:11Z
2023-09-23T12:09:52Z,42.805,6.029,13.3050,4.60142,2470.787,2023-9-23T14:12:14Z
2023-09-23T12:12:55Z,42.805,6.029,13.3040,4.60154,2470.763,2023-9-23T14:15:18Z
2023-09-23T12:15:58Z,42.805,6.029,13.3048,4.60179,2470.81,2023-9-23T14:18:21Z
2023-09-23T12:19:01Z,42.805,6.029,13.3046,4.60160,2470.833,2023-9-23T14:21:24Z
2023-09-23T12:22:04Z,42.805,6.029,13.3046,4.60165,2470.81,2023-9-23T14:24:27Z
2023-09-23T12:25:07Z,42.805,6.029,13.3054,4.60145,2470.787,2023-9-23T14:27:30Z
2023-09-23T12:28:10Z,42.805,6.029,13.3050,4.60149,2470.787,2023-9-23T14:30:33Z
2023-09-23T12:31:13Z,42.805,6.029,13.3045,4.60169,2470.814,2023-9-23T14:33:36Z
2023-09-23T12:34:16Z,42.805,6.029,13.3054,4.60165,2470.847,2023-9-23T14:36:39Z
2023-09-23T12:37:20Z,42.805,6.029,13.3047,4.60180,2470.8,2023-9-23T14:39:42Z
2023-09-23T12:40:23Z,42.805,6.029,13.3042,4.60163,2470.824,2023-9-23T14:42:45Z
2023-09-23T12:43:26Z,42.805,6.029,13.3056,4.60171,2470.81,2023-9-23T14:45:48Z
2023-09-23T12:46:29Z,42.805,6.029,13.3054,4.60150,2470.824,2023-9-23T14:48:52Z
2023-09-23T12:49:32Z,42.805,6.029,13.3050,4.60144,2470.81,2023-9-23T14:51:55Z
2023-09-23T12:52:35Z,42.805,6.029,13.3056,4.60154,2470.787,2023-9-23T14:54:58Z
2023-09-23T12:55:38Z,42.805,6.029,13.3058,4.60171,2470.81,2023-9-23T14:58:01Z
2023-09-23T12:58:41Z,42.805,6.029,13.3061,4.60134,2470.81,2023-9-23T15:01:04Z
2023-09-23T13:01:44Z,42.805,6.029,13.3048,4.60145,2470.8,2023-9-23T15:04:07Z
2023-09-23T13:04:47Z,42.805,6.029,13.3058,4.60126,2470.824,2023-9-23T15:07:10Z
2023-09-23T13:07:50Z,42.805,6.029,13.3054,4.60123,2470.8,2023-9-23T15:10:13Z
2023-09-23T13:10:54Z,42.805,6.029,13.3053,4.60141,2470.81,2023-9-23T15:13:16Z
2023-09-23T13:13:57Z,42.805,6.029,13.3064,4.60164,2470.833,2023-9-23T15:16:19Z
2023-09-23T13:17:00Z,42.805,6.029,13.3062,4.60127,2470.81,2023-9-23T15:19:22Z
2023-09-23T13:20:03Z,42.805,6.029,13.3045,4.60161,2470.871,2023-9-23T15:22:25Z
2023-09-23T13:23:06Z,42.805,6.029,13.3039,4.60150,2470.81,2023-9-23T15:25:29Z
2023-09-23T13:26:09Z,42.805,6.029,13.3041,4.60144,2470.857,2023-9-23T15:28:32Z
2023-09-23T13:29:12Z,42.805,6.029,13.3047,4.60150,2470.847,2023-9-23T15:31:35Z
2023-09-23T13:32:15Z,42.805,6.029,13.3047,4.60162,2470.824,2023-9-23T15:34:38Z
2023-09-23T13:35:18Z,42.805,6.029,13.3046,4.60160,2470.8,2023-9-23T15:37:41Z
2023-09-23T13:38:21Z,42.805,6.029,13.3048,4.60125,2470.8,2023-9-23T15:40:44Z
2023-09-23T13:41:24Z,42.805,6.029,13.3045,4.60160,2470.824,2023-9-23T15:43:47Z
2023-09-23T13:44:28Z,42.805,6.029,13.3044,4.60148,2470.796,2023-9-23T15:46:50Z
2023-09-23T13:47:31Z,42.805,6.029,13.3048,4.60127,2470.824,2023-9-23T15:49:53Z
2023-09-23T13:50:34Z,42.805,6.029,13.3040,4.60133,2470.81,2023-9-23T15:52:56Z
2023-09-23T13:53:37Z,42.805,6.029,13.3043,4.60120,2470.81,2023-9-23T15:55:59Z
2023-09-23T13:56:40Z,42.805,6.029,13.3045,4.60163,2470.8,2023-9-23T15:59:03Z
2023-09-23T13:59:43Z,42.805,6.029,13.3062,4.60147,2470.81,2023-9-23T16:02:06Z
2023-09-23T14:02:46Z,42.805,6.029,13.3055,4.60140,2470.824,2023-9-23T16:05:09Z
2023-09-23T14:05:49Z,42.805,6.029,13.3048,4.60127,2470.81,2023-9-23T16:08:12Z
2023-09-23T14:08:52Z,42.805,6.029,13.3052,4.60120,2470.81,2023-9-23T16:11:15Z
2023-09-23T14:11:55Z,42.805,6.029,13.3056,4.60134,2470.824,2023-9-23T16:14:18Z
2023-09-23T14:14:58Z,42.805,6.029,13.3048,4.60157,2470.81,2023-9-23T16:17:21Z
2023-09-23T14:18:01Z,42.805,6.029,13.3056,4.60125,2470.833,2023-9-23T16:20:24Z
2023-09-23T14:21:04Z,42.805,6.029,13.3045,4.60158,2470.787,2023-9-23T16:23:27Z
2023-09-23T14:24:08Z,42.805,6.029,13.3056,4.60150,2470.81,2023-9-23T16:26:30Z
2023-09-23T14:27:11Z,42.805,6.029,13.3045,4.60134,2470.787,2023-9-23T16:29:33Z
2023-09-23T14:30:14Z,42.805,6.029,13.3056,4.60150,2470.847,2023-9-23T16:32:36Z
2023-09-23T14:33:17Z,42.805,6.029,13.3042,4.60135,2470.8,2023-9-23T16:35:40Z
2023-09-23T14:36:20Z,42.805,6.029,13.3054,4.60137,2470.8,2023-9-23T16:38:43Z
2023-09-23T14:39:23Z,42.805,6.029,13.3032,4.60125,2470.81,2023-9-23T16:41:46Z
2023-09-23T14:42:26Z,42.805,6.029,13.3047,4.60145,2470.81,2023-9-23T16:44:49Z
2023-09-23T14:45:29Z,42.805,6.029,13.3046,4.60137,2470.824,2023-9-23T16:47:52Z
2023-09-23T14:48:32Z,42.805,6.029,13.3039,4.60125,2470.824,2023-9-23T16:50:55Z
2023-09-23T14:51:35Z,42.805,6.029,13.3043,4.60144,2470.8,2023-9-23T16:53:58Z
2023-09-23T14:54:38Z,42.805,6.029,13.3043,4.60148,2470.833,2023-9-23T16:57:01Z
2023-09-23T14:57:42Z,42.805,6.029,13.3042,4.60138,2470.833,2023-9-23T17:00:04Z
2023-09-23T15:00:45Z,42.805,6.029,13.3039,4.60129,2470.824,2023-9-23T17:03:07Z
2023-09-23T15:03:48Z,42.805,6.029,13.3041,4.60129,2470.824,2023-9-23T17:06:10Z
2023-09-23T15:06:51Z,42.805,6.029,13.3036,4.60134,2470.81,2023-9-23T17:09:13Z
2023-09-23T15:09:54Z,42.805,6.029,13.3042,4.60156,2470.81,2023-9-23T17:12:17Z
2023-09-23T15:12:57Z,42.805,6.029,13.3048,4.60157,2470.824,2023-9-23T17:15:20Z